| time (UTC) | temp C | wind direction | speed KPH | gust KPH | rain 1hr cm | rain 24hr cm | rain mn cm | humidity % | barometer mb |
| 20260506001632 | 14 | 124 | 1.6 | 8.0 | 0.00 | 0.23 | 0.23 | 70 | 1008.3 |
| 20260506000139 | 14 | 123 | 1.6 | 11.3 | 0.00 | 0.23 | 0.23 | 70 | 1008.2 |
| 20260505234629 | 15 | 110 | 1.6 | 9.7 | 0.00 | 0.23 | 0.23 | 71 | 1007.5 |
| 20260505233140 | 15 | 60 | 3.2 | 12.9 | 0.00 | 0.23 | 0.23 | 70 | 1007.3 |
| 20260505231635 | 16 | 139 | 0.0 | 3.2 | 0.00 | 0.23 | 0.23 | 75 | 1006.6 |
| 20260505230126 | 16 | 130 | 0.0 | 6.4 | 0.00 | 0.23 | 0.23 | 78 | 1006.3 |
| 20260505224636 | 16 | 157 | 3.2 | 8.0 | 0.00 | 0.23 | 0.23 | 79 | 1006.1 |
| 20260505223145 | 16 | 136 | 0.0 | 9.7 | 0.00 | 0.23 | 0.23 | 80 | 1005.5 |
| 20260505221639 | 17 | 98 | 3.2 | 8.0 | 0.10 | 0.23 | 0.23 | 82 | 1005.0 |
| 20260505220126 | 17 | 141 | 3.2 | 8.0 | 0.13 | 0.23 | 0.23 | 85 | 1004.9 |
| 20260505214621 | 17 | 125 | 0.0 | 1.6 | 0.18 | 0.23 | 0.23 | 90 | 1004.9 |
| 20260505213121 | 17 | 90 | 1.6 | 3.2 | 0.18 | 0.23 | 0.23 | 88 | 1004.5 |
| 20260505211645 | 17 | 86 | 0.0 | 4.8 | 0.08 | 0.13 | 0.13 | 85 | 1004.5 |
| 20260505210147 | 19 | 68 | 0.0 | 3.2 | 0.05 | 0.10 | 0.10 | 78 | 1004.5 |
| 20260505204638 | 20 | 77 | 1.6 | 9.7 | 0.00 | 0.05 | 0.05 | 72 | 1004.1 |
| 20260505203138 | 20 | 15 | 3.2 | 4.8 | 0.00 | 0.05 | 0.05 | 70 | 1004.0 |
| 20260505201631 | 21 | 103 | 0.0 | 8.0 | 0.00 | 0.05 | 0.05 | 71 | 1004.1 |
| 20260505200129 | 21 | 68 | 1.6 | 9.7 | 0.00 | 0.05 | 0.05 | 70 | 1004.0 |
| 20260505194622 | 19 | 87 | 1.6 | 6.4 | 0.00 | 0.05 | 0.05 | 77 | 1003.9 |
| 20260505193136 | 18 | 91 | 3.2 | 6.4 | 0.00 | 0.05 | 0.05 | 81 | 1004.1 |
| 20260505191633 | 17 | 91 | 1.6 | 6.4 | 0.05 | 0.05 | 0.05 | 85 | 1004.3 |
| 20260505190130 | 17 | 83 | 0.0 | 1.6 | 0.05 | 0.05 | 0.05 | 86 | 1004.4 |
| 20260505184622 | 17 | 58 | 1.6 | 8.0 | 0.05 | 0.05 | 0.05 | 83 | 1004.4 |
| 20260505183125 | 17 | 79 | 9.7 | 24.1 | 0.05 | 0.05 | 0.05 | 79 | 1005.0 |
| 20260505181637 | 21 | 65 | 9.7 | 37.0 | 0.00 | 0.00 | 0.00 | 63 | 1004.2 |
| 20260505180129 | 23 | 110 | 4.8 | 20.9 | 0.00 | 0.00 | 0.00 | 52 | 1003.3 |
| 20260505174631 | 22 | 60 | 4.8 | 12.9 | 0.00 | 0.00 | 0.00 | 53 | 1003.3 |
| 20260505173130 | 22 | 63 | 4.8 | 16.1 | 0.00 | 0.00 | 0.00 | 54 | 1003.3 |
| 20260505171622 | 23 | 308 | 3.2 | 16.1 | 0.00 | 0.00 | 0.00 | 50 | 1003.2 |
| 20260505170139 | 23 | 90 | 4.8 | 12.9 | 0.00 | 0.00 | 0.00 | 50 | 1003.3 |
| 20260505164636 | 23 | 56 | 4.8 | 20.9 | 0.00 | 0.00 | 0.00 | 51 | 1003.0 |
| 20260505163129 | 23 | 97 | 4.8 | 19.3 | 0.00 | 0.00 | 0.00 | 51 | 1003.0 |
| 20260505160126 | 23 | 65 | 1.6 | 12.9 | 0.00 | 0.00 | 0.00 | 52 | 1003.0 |
| 20260505153147 | 23 | 33 | 4.8 | 11.3 | 0.00 | 0.00 | 0.00 | 52 | 1003.4 |
| 20260505151625 | 23 | 90 | 1.6 | 12.9 | 0.00 | 0.00 | 0.00 | 52 | 1003.5 |
| 20260505150124 | 24 | 73 | 6.4 | 19.3 | 0.00 | 0.00 | 0.00 | 50 | 1003.4 |
| 20260505140135 | 23 | 78 | 4.8 | 16.1 | 0.00 | 0.00 | 0.00 | 51 | 1002.8 |
| 20260505130155 | 22 | 56 | 8.0 | 19.3 | 0.00 | 0.00 | 0.00 | 55 | 1003.1 |
| 20260505124646 | 21 | 56 | 8.0 | 17.7 | 0.00 | 0.00 | 0.00 | 56 | 1003.2 |
| 20260505123158 | 21 | 60 | 4.8 | 16.1 | 0.00 | 0.00 | 0.00 | 58 | 1003.1 |
| 20260505121625 | 20 | 347 | 6.4 | 20.9 | 0.00 | 0.00 | 0.00 | 60 | 1003.1 |
| 20260505120147 | 20 | 27 | 6.4 | 16.1 | 0.00 | 0.00 | 0.00 | 61 | 1003.0 |
| 20260505114700 | 20 | 110 | 4.8 | 20.9 | 0.00 | 0.00 | 0.00 | 60 | 1002.9 |
| 20260505113131 | 18 | 41 | 3.2 | 12.9 | 0.00 | 0.00 | 0.00 | 64 | 1003.0 |
| 20260505111626 | 18 | 58 | 3.2 | 14.5 | 0.00 | 0.00 | 0.00 | 64 | 1002.9 |
| 20260505110149 | 18 | 76 | 4.8 | 9.7 | 0.00 | 0.00 | 0.00 | 64 | 1002.8 |
| 20260505101627 | 16 | 358 | 1.6 | 9.7 | 0.00 | 0.00 | 0.00 | 71 | 1002.4 |
| 20260505100129 | 15 | 81 | 1.6 | 4.8 | 0.00 | 0.00 | 0.00 | 73 | 1002.5 |
| 20260505094625 | 15 | 14 | 1.6 | 8.0 | 0.00 | 0.00 | 0.00 | 75 | 1002.6 |
| 20260505093128 | 15 | 94 | 4.8 | 11.3 | 0.00 | 0.00 | 0.00 | 76 | 1002.6 |
| 20260505091700 | 15 | 90 | 1.6 | 8.0 | 0.00 | 0.00 | 0.00 | 80 | 1002.6 |
| 20260505090135 | 15 | 72 | 1.6 | 9.7 | 0.00 | 0.00 | 0.00 | 81 | 1002.7 |
| 20260505084632 | 15 | 340 | 0.0 | 3.2 | 0.00 | 0.00 | 0.00 | 81 | 1002.7 |
| 20260505083133 | 16 | 95 | 0.0 | 4.8 | 0.00 | 0.00 | 0.00 | 76 | 1003.3 |
| 20260505081646 | 17 | 352 | 4.8 | 17.7 | 0.00 | 0.00 | 0.00 | 71 | 1003.3 |
| 20260505080158 | 16 | 24 | 3.2 | 8.0 | 0.00 | 0.00 | 0.00 | 68 | 1003.4 |
| 20260505074651 | 17 | 294 | 3.2 | 11.3 | 0.00 | 0.00 | 0.00 | 67 | 1003.0 |
| 20260505073123 | 17 | 101 | 1.6 | 4.8 | 0.00 | 0.00 | 0.00 | 68 | 1003.0 |
| 20260505071621 | 17 | 54 | 3.2 | 6.4 | 0.00 | 0.00 | 0.00 | 66 | 1003.2 |
| 20260505070136 | 17 | 18 | 3.2 | 8.0 | 0.00 | 0.00 | 0.00 | 66 | 1003.1 |
| 20260505063147 | 18 | 72 | 4.8 | 20.9 | 0.00 | 0.00 | 0.00 | 57 | 1002.8 |
| 20260505061640 | 18 | 90 | 3.2 | 12.9 | 0.00 | 0.00 | 0.00 | 57 | 1003.2 |
| 20260505060138 | 19 | 99 | 4.8 | 20.9 | 0.00 | 0.00 | 0.00 | 53 | 1002.9 |
| 20260505054630 | 19 | 89 | 4.8 | 17.7 | 0.00 | 0.00 | 0.00 | 52 | 1003.0 |
| 20260505053130 | 18 | 75 | 3.2 | 12.9 | 0.00 | 0.00 | 0.00 | 52 | 1003.1 |
| 20260505051701 | 18 | 50 | 4.8 | 11.3 | 0.00 | 0.00 | 0.00 | 53 | 1003.2 |
| 20260505050131 | 18 | 103 | 0.0 | 6.4 | 0.00 | 0.00 | 0.00 | 54 | 1003.1 |
| 20260505041632 | 17 | 25 | 3.2 | 8.0 | 0.00 | 0.00 | 0.00 | 54 | 1003.1 |
| 20260505040145 | 17 | 67 | 1.6 | 6.4 | 0.00 | 0.00 | 0.00 | 54 | 1003.0 |
| 20260505034644 | 17 | 41 | 1.6 | 6.4 | 0.00 | 0.00 | 0.00 | 53 | 1002.8 |
| 20260505033134 | 17 | 71 | 1.6 | 4.8 | 0.00 | 0.00 | 0.00 | 52 | 1002.9 |
| 20260505031629 | 17 | 87 | 1.6 | 6.4 | 0.00 | 0.00 | 0.00 | 52 | 1002.8 |
| 20260505030137 | 18 | 79 | 1.6 | 4.8 | 0.00 | 0.00 | 0.00 | 52 | 1002.8 |
| 20260505024634 | 18 | 68 | 1.6 | 8.0 | 0.00 | 0.00 | 0.00 | 51 | 1002.8 |
| 20260505023128 | 17 | 60 | 1.6 | 6.4 | 0.00 | 0.00 | 0.00 | 52 | 1003.0 |
| 20260505021626 | 17 | 67 | 1.6 | 4.8 | 0.00 | 0.00 | 0.00 | 51 | 1003.1 |
| 20260505020131 | 17 | 63 | 1.6 | 6.4 | 0.00 | 0.00 | 0.00 | 52 | 1003.0 |
| 20260505014623 | 16 | 94 | 0.0 | 0.0 | 0.00 | 0.00 | 0.00 | 54 | 1003.0 |
| 20260505013127 | 16 | 94 | 0.0 | 0.0 | 0.00 | 0.00 | 0.00 | 55 | 1003.0 |
| 20260505011626 | 16 | 94 | 0.0 | 0.0 | 0.00 | 0.00 | 0.00 | 55 | 1003.1 |
| 20260505010125 | 16 | 94 | 0.0 | 0.0 | 0.00 | 0.00 | 0.00 | 53 | 1002.8 |
| 20260505004624 | 17 | 94 | 0.0 | 0.0 | 0.00 | 0.00 | 0.00 | 51 | 1002.8 |
| 20260505003124 | 18 | 94 | 0.0 | 0.0 | 0.00 | 0.00 | 0.00 | 47 | 1002.7 |